Meteo pe oră la Alibag

Astăzi, 21 Ianuarie, Joi

Timp Temperatura Precipitaţii Vânt Presiune Umiditate
00:00 +25°C° 0 mm 2 m/s 759 mmHg 56%
01:00 +24°C° 0 mm 2 m/s 759 mmHg 55%
02:00 +24°C° 0 mm 2 m/s 759 mmHg 54%
03:00 +24°C° 0 mm 2 m/s 759 mmHg 55%
04:00 +22°C° 0 mm 3 m/s 759 mmHg 55%
05:00 +22°C° 0 mm 3 m/s 759 mmHg 56%
06:00 +24°C° 0 mm 3 m/s 759 mmHg 54%
07:00 +24°C° 0 mm 3 m/s 760 mmHg 51%
08:00 +25°C° 0 mm 3 m/s 760 mmHg 49%
09:00 +27°C° 0 mm 3 m/s 760 mmHg 41%
10:00 +29°C° 0 mm 3 m/s 760 mmHg 32%
11:00 +32°C° 0 mm 2 m/s 760 mmHg 26%
12:00 +33°C° 0 mm 3 m/s 759 mmHg 26%
13:00 +33°C° 0 mm 3 m/s 759 mmHg 25%
14:00 +33°C° 0 mm 4 m/s 758 mmHg 25%
15:00 +32°C° 0 mm 4 m/s 758 mmHg 30%
16:00 +30°C° 0 mm 4 m/s 758 mmHg 35%
17:00 +29°C° 0 mm 4 m/s 758 mmHg 40%
18:00 +27°C° 0 mm 3 m/s 758 mmHg 49%
19:00 +26°C° 0 mm 3 m/s 759 mmHg 57%
20:00 +24°C° 0 mm 3 m/s 759 mmHg 66%
21:00 +24°C° 0 mm 3 m/s 759 mmHg 67%
22:00 +24°C° 0 mm 3 m/s 759 mmHg 68%
23:00 +22°C° 0 mm 3 m/s 759 mmHg 70%

Mâine, 22 Ianuarie, Vineri

Timp Temperatura Precipitaţii Vânt Presiune Umiditate
00:00 +23°C° 0 mm 2 m/s 759 mmHg 70%
01:00 +23°C° 0 mm 2 m/s 759 mmHg 70%
02:00 +21°C° 0 mm 2 m/s 758 mmHg 70%
03:00 +21°C° 0 mm 2 m/s 758 mmHg 69%
04:00 +21°C° 0 mm 3 m/s 758 mmHg 67%
05:00 +21°C° 0 mm 3 m/s 758 mmHg 66%
06:00 +21°C° 0 mm 2 m/s 759 mmHg 61%
07:00 +23°C° 0 mm 2 m/s 759 mmHg 57%
08:00 +24°C° 0 mm 2 m/s 759 mmHg 52%
09:00 +27°C° 0 mm 2 m/s 759 mmHg 44%
10:00 +30°C° 0 mm 2 m/s 759 mmHg 36%
11:00 +32°C° 0 mm 2 m/s 759 mmHg 28%
12:00 +34°C° 0 mm 2 m/s 759 mmHg 29%
13:00 +34°C° 0 mm 3 m/s 758 mmHg 29%
14:00 +35°C° 0 mm 3 m/s 757 mmHg 30%
15:00 +33°C° 0 mm 3 m/s 757 mmHg 35%
16:00 +31°C° 0 mm 3 m/s 757 mmHg 40%
17:00 +30°C° 0 mm 3 m/s 757 mmHg 45%
18:00 +28°C° 0 mm 3 m/s 757 mmHg 52%
19:00 +27°C° 0 mm 3 m/s 757 mmHg 58%
20:00 +26°C° 0 mm 3 m/s 758 mmHg 65%
21:00 +25°C° 0 mm 3 m/s 758 mmHg 66%
22:00 +25°C° 0 mm 3 m/s 758 mmHg 68%
23:00 +25°C° 0 mm 3 m/s 758 mmHg 69%

Poimâine, 23 Ianuarie, Sâmbătă

Timp Temperatura Precipitaţii Vânt Presiune Umiditate
00:00 +25°C° 0 mm 3 m/s 758 mmHg 70%
01:00 +24°C° 0 mm 3 m/s 757 mmHg 70%
02:00 +24°C° 0 mm 3 m/s 757 mmHg 71%
03:00 +24°C° 0 mm 3 m/s 757 mmHg 70%
04:00 +24°C° 0 mm 3 m/s 757 mmHg 69%
05:00 +22°C° 0 mm 3 m/s 757 mmHg 68%
06:00 +24°C° 0 mm 3 m/s 758 mmHg 64%
07:00 +25°C° 0 mm 3 m/s 758 mmHg 61%
08:00 +25°C° 0 mm 3 m/s 759 mmHg 57%
09:00 +28°C° 0 mm 3 m/s 759 mmHg 50%
10:00 +30°C° 0 mm 3 m/s 759 mmHg 42%
11:00 +33°C° 0 mm 3 m/s 759 mmHg 35%
12:00 +33°C° 0 mm 4 m/s 759 mmHg 35%
13:00 +34°C° 0 mm 4 m/s 758 mmHg 35%
14:00 +34°C° 0 mm 4 m/s 757 mmHg 35%
15:00 +33°C° 0 mm 4 m/s 757 mmHg 40%
16:00 +32°C° 0 mm 4 m/s 757 mmHg 45%
17:00 +30°C° 0 mm 4 m/s 757 mmHg 49%
18:00 +28°C° 0 mm 4 m/s 757 mmHg 55%
19:00 +27°C° 0 mm 4 m/s 758 mmHg 60%
20:00 +25°C° 0 mm 4 m/s 758 mmHg 66%
21:00 +25°C° 0 mm 3 m/s 758 mmHg 68%
22:00 +25°C° 0 mm 3 m/s 758 mmHg 70%
23:00 +24°C° 0 mm 3 m/s 758 mmHg 71%

24 Ianuarie, Duminică

Timp Temperatura Precipitaţii Vânt Presiune Umiditate
00:00 +24°C° 0 mm 3 m/s 758 mmHg 72%
01:00 +24°C° 0 mm 3 m/s 758 mmHg 72%
02:00 +24°C° 0 mm 3 m/s 757 mmHg 72%
03:00 +22°C° 0 mm 3 m/s 757 mmHg 72%
04:00 +22°C° 0 mm 3 m/s 757 mmHg 72%
05:00 +22°C° 0 mm 3 m/s 757 mmHg 72%
06:00 +22°C° 0 mm 3 m/s 758 mmHg 68%
07:00 +24°C° 0 mm 3 m/s 759 mmHg 65%
08:00 +24°C° 0 mm 2 m/s 759 mmHg 61%
09:00 +27°C° 0 mm 3 m/s 759 mmHg 53%
10:00 +29°C° 0 mm 3 m/s 759 mmHg 45%
11:00 +31°C° 0 mm 3 m/s 759 mmHg 36%
12:00 +31°C° 0 mm 3 m/s 759 mmHg 36%
13:00 +33°C° 0 mm 3 m/s 758 mmHg 37%
14:00 +33°C° 0 mm 4 m/s 758 mmHg 37%
15:00 +32°C° 0 mm 4 m/s 758 mmHg 43%
16:00 +30°C° 0 mm 4 m/s 758 mmHg 48%
17:00 +28°C° 0 mm 4 m/s 758 mmHg 54%
18:00 +27°C° 0 mm 4 m/s 758 mmHg 60%
19:00 +26°C° 0 mm 4 m/s 759 mmHg 66%
20:00 +25°C° 0 mm 3 m/s 759 mmHg 72%
21:00 +24°C° 0 mm 3 m/s 759 mmHg 71%
22:00 +24°C° 0 mm 3 m/s 759 mmHg 70%
23:00 +24°C° 0 mm 2 m/s 759 mmHg 69%

25 Ianuarie, Luni

Timp Temperatura Precipitaţii Vânt Presiune Umiditate
00:00 +24°C° 0 mm 2 m/s 759 mmHg 68%
01:00 +23°C° 0 mm 2 m/s 759 mmHg 68%
02:00 +23°C° 0 mm 2 m/s 758 mmHg 67%
03:00 +22°C° 0 mm 3 m/s 758 mmHg 67%
04:00 +21°C° 0 mm 3 m/s 758 mmHg 67%
05:00 +21°C° 0 mm 3 m/s 758 mmHg 66%
06:00 +22°C° 0 mm 3 m/s 758 mmHg 63%
07:00 +24°C° 0 mm 3 m/s 759 mmHg 59%
08:00 +24°C° 0 mm 3 m/s 760 mmHg 56%
09:00 +27°C° 0 mm 2 m/s 760 mmHg 47%
10:00 +30°C° 0 mm 2 m/s 760 mmHg 39%
11:00 +34°C° 0 mm 2 m/s 760 mmHg 30%
12:00 +34°C° 0 mm 3 m/s 759 mmHg 30%
13:00 +34°C° 0 mm 4 m/s 758 mmHg 31%
14:00 +34°C° 0 mm 5 m/s 758 mmHg 31%
15:00 +32°C° 0 mm 5 m/s 758 mmHg 35%
16:00 +30°C° 0 mm 5 m/s 758 mmHg 40%
17:00 +29°C° 0 mm 5 m/s 758 mmHg 44%
18:00 +27°C° 0 mm 4 m/s 758 mmHg 49%
19:00 +26°C° 0 mm 4 m/s 759 mmHg 54%
20:00 +25°C° 0 mm 4 m/s 759 mmHg 59%
21:00 +24°C° 0 mm 3 m/s 759 mmHg 59%
22:00 +24°C° 0 mm 3 m/s 759 mmHg 59%
23:00 +24°C° 0 mm 3 m/s 759 mmHg 59%

26 Ianuarie, Marţi

Timp Temperatura Precipitaţii Vânt Presiune Umiditate
00:00 +24°C° 0 mm 3 m/s 759 mmHg 58%
01:00 +22°C° 0 mm 3 m/s 759 mmHg 57%
02:00 +22°C° 0 mm 3 m/s 758 mmHg 55%
03:00 +21°C° 0 mm 3 m/s 758 mmHg 55%
04:00 +21°C° 0 mm 3 m/s 758 mmHg 54%
05:00 +21°C° 0 mm 3 m/s 758 mmHg 53%
06:00 +22°C° 0 mm 3 m/s 758 mmHg 50%
07:00 +22°C° 0 mm 3 m/s 759 mmHg 48%
08:00 +24°C° 0 mm 3 m/s 760 mmHg 45%
09:00 +26°C° 0 mm 3 m/s 760 mmHg 36%
10:00 +29°C° 0 mm 3 m/s 759 mmHg 28%
11:00 +31°C° 0 mm 2 m/s 759 mmHg 19%
12:00 +33°C° 0 mm 3 m/s 759 mmHg 20%
13:00 +33°C° 0 mm 3 m/s 758 mmHg 20%
14:00 +33°C° 0 mm 4 m/s 758 mmHg 21%
15:00 +32°C° 0 mm 4 m/s 758 mmHg 27%
16:00 +30°C° 0 mm 4 m/s 757 mmHg 33%
17:00 +28°C° 0 mm 5 m/s 757 mmHg 40%
18:00 +27°C° 0 mm 4 m/s 758 mmHg 46%
19:00 +25°C° 0 mm 4 m/s 758 mmHg 52%
20:00 +24°C° 0 mm 3 m/s 759 mmHg 58%
21:00 +22°C° 0 mm 3 m/s 759 mmHg 58%
22:00 +22°C° 0 mm 3 m/s 759 mmHg 58%
23:00 +23°C° 0 mm 2 m/s 759 mmHg 58%
Arată mai mult

Formular de consimțământ

Meteoprog și furnizorii noștri de servicii pot stoca și accesa date personale, precum cookies, identificatori de dispozitiv sau alte tehnologii similare pe dispozitivul dumneavoastră și procesa astfel de date pentru a personaliza conținutul și reclamele, dar și pentru a oferi caracteristici de social media și pentru a analiza traficul.

  • Stocarea și/sau accesarea informațiilor pe dispozitivul dumneavoastră

    Cookies, identificatori de dispozitiv sau alte informații pot fi stocate sau accesate pe dispozitiv în scopurile indicate mai sus.

  • Reclame și conținut personalizat, evaluarea reclamelor și a conținutului, informații despre audiențe și dezvoltarea produselor

    Reclamele și conținutul pot fi personalizate pe baza unui profil. Pot fi adăugate date suplimentare pentru a personaliza mai bine reclamele și conținutul. Performanța reclamelor și conținutului poate fi măsurată. Pot fi obținute informații despre utilizatorii care au văzut reclamele și conținutul. Aceste date pot fi utilizate pentru a dezvolta sau îmbunătăți experiența utilizatorilor, sistemele și software-ul.

Dând clic pe ‘Sunt de acord’, permiteți utilizarea cookie-urilor menționate, a identificatorilor de dispozitiv, balizelor web sau altor tehnologii similare. Setările pot fi modificate din browser-ul dispozitivului dumneavoastră.

În anumite scopuri, interesele legitime pot prima asupra consimțământului. Puteți citi mai multe informații în acest sens în Politica privind Confidențialitatea Datelor și Cookie.